User: anonymous   Login
Location: Laterina
(43.5167°N, 11.7167°E)
Time: 03:41:09
(UTC+00:00)
Language:

Meteor 2-19 Rocket - Orbit

View from above orbital plane
View from above orbital plane
View from above satellite
View from above satellite

Ground track
Ground track

The orbit data is extracted from the following two-line orbital elements,

1 20671U 90057B   20329.43704252  .00000029  00000-0  12634-4 0  9991
2 20671  82.5467  93.5359 0015849  32.5817 327.6318 13.84626813536913
Epoch (UTC): 24 November 2020 10:29:20
Eccentricity: 0.0015849
inclination: 82.5467°
perigee height: 936 km
apogee height: 959 km
right ascension of ascending node: 93.5359°
argument of perigee: 32.5817°
revolutions per day: 13.84626813
mean anomaly at epoch: 327.6318°
orbit number at epoch: 53691

The dashed part of the orbit path shows where the satellite is in the earth's shadow,  

DLR